Regional Weather Roundup
Issued by NWS Wilmington, NC

Home | Current Version | Previous Version | Text Only | Print | Product List | Glossary On
Versions: 1 2 3 4 5 6 7 8 9 10 11 12 13 14 15 16 17 18 19 20 21 22 23 24 25 26 27 28 29 30 31 32 33 34 35 36 37 38 39 40 41 42 43 44 45 46 47 48
000
ASUS42 KILM 290210
RWRILM
RWRILM
REGIONAL HOURLY WEATHER ROUNDUP
NATIONAL WEATHER SERVICE WILMINGTON NC
900 PM EST FRI NOV 28 2014

NOTE: "FAIR" INDICATES FEW OR NO CLOUDS BELOW 12,000 FEET WITH NO
SIGNIFICANT WEATHER AND/OR OBSTRUCTIONS TO VISIBILITY.

...............WFO WILMINGTON COUNTY WARNING AREA...............

......COASTAL NC AND SC COUNTIES......

CITY           SKY/WX    TMP DP  RH WIND       PRES   REMARKS
WILMINGTON     CLEAR     33  30  88 CALM      30.34S
SOUTHPORT      CLEAR     34  29  83 CALM      30.35S
N MYRTLE BEACH CLEAR     33  29  85 CALM      30.35R
MYRTLE BEACH   CLEAR     36  28  75 N6        30.35  WCI  31

......INLAND NC AND SC COUNTIES.......

CITY           SKY/WX    TMP DP  RH WIND       PRES   REMARKS
LUMBERTON      CLEAR     32  28  85 CALM      30.33S
ELIZABETHTOWN  CLEAR     32  28  85 CALM      30.34R
WHITEVILLE     CLEAR     33  29  86 CALM      30.34S
FLORENCE       CLEAR     33  28  81 CALM      30.34S
DARLINGTON     CLEAR     32  25  74 CALM      30.35S

....................REST OF NORTH CAROLINA......................

.........EASTERN NC.........

CITY           SKY/WX    TMP DP  RH WIND       PRES   REMARKS
CAPE HATTERAS  PTCLDY    39  25  57 VRB3      30.32S
JACKSONVILLE   CLEAR     30  27  86 CALM      30.34F
MOREHEAD CITY  CLEAR     34  29  82 CALM      30.34S
KENANSVILLE    CLEAR     29  27  91 CALM      30.34F
NEW BERN       CLEAR     33  28  81 CALM      30.35R
ELIZABETH CITY CLEAR     31  24  75 SW3       30.33R

.........CENTRAL NC.........

CITY           SKY/WX    TMP DP  RH WIND       PRES   REMARKS
RALEIGH DURHAM CLEAR     31  24  75 CALM      30.31F
ROCKY MOUNT    CLEAR     29  25  85 CALM      30.33R
ROANOKE RAPIDS NOT AVBL
FAYETTEVILLE   CLEAR     32  27  81 CALM      30.32S
HOFFMAN        CLEAR     29  27  92 CALM      30.34S

.........WESTERN NC.........

CITY           SKY/WX    TMP DP  RH WIND       PRES   REMARKS
CHARLOTTE      CLEAR     35  20  54 S5        30.30S WCI  31
GREENSBORO     PTCLDY    34  22  61 CALM      30.27S
HICKORY        NOT AVBL
BOONE          NOT AVBL
ASHEVILLE      NOT AVBL

.....................REST OF SOUTH CAROLINA.....................

.........EASTERN SC.........

CITY           SKY/WX    TMP DP  RH WIND       PRES   REMARKS
CHARLESTON     CLEAR     37  30  75 CALM      30.35S
BEAUFORT MCAS  CLEAR     38  34  85 CALM      30.35R
HILTON HEAD    CLEAR     36  34  93 CALM      30.36R

.........CENTRAL SC.........

CITY           SKY/WX    TMP DP  RH WIND       PRES   REMARKS
COLUMBIA       CLEAR     34  28  79 CALM      30.33F
ORANGEBURG     CLEAR     34  29  82 CALM      30.34S
SUMTER SHAW    CLEAR     34  29  80 SW2       30.32S

.........WESTERN SC.........

CITY           SKY/WX    TMP DP  RH WIND       PRES   REMARKS
GREENVILLE     NOT AVBL
ROCK HILL      CLEAR     30  25  81 CALM      30.30S
ANDERSON       CLEAR     33  26  75 CALM      30.30R
CLEMSON        NOT AVBL
GREENWOOD      CLEAR     33  25  72 CALM      30.32S


...................COASTAL AND OFFSHORE REPORTS..................

................LOCAL PIERS AND NC RESERVE................


STATION/POSITION TIME  SKY/WX   TEMP    WIND        PRES    VSBY
                                AIR SEA DIR/SP/G
                 (UTC)          (F)     (DEG/KT/KT) (MB)    (MI)
JOHNY MRCER PIER 0200            40 59  330/  5/  5 1027.1R
NC RESRV MASNBRO 0100            37     260/  1     1027.0S
OCEAN CREST PIER 0200            40 56  300/  5/  6 1026.8S
SPRINGMAID  PIER 0200            38 55  330/  4/  4 1027.6R


................COASTAL AND OFFSHORE BUOYS................


STATION/POSITION TIME  SKY/WX   TEMP    WIND        PRES    VSBY
                                AIR SEA DIR/SP/G
                 (UTC)          (F)     (DEG/KT/KT) (MB)    (MI)
DIMNDSHOAL 41025 0200            42     330/ 10/ 16 1026.8R
WVE H/P(F/S)=  4/ 8 WND WVE H/P(F/S)=  2/ 4 SWL H/P/D(F/S/D)=  3/ 20/ 8

CAPE LOOKOUT     0100            43     350/  8/  9 1026.9R
ONSLOW BAY 41036 0100            47 66  340/ 10/ 12 1027.5R
5 WRITEBCH 41038 0100            43 58  350/  6/  8 1027.4R
MASONBORO  41110 0200               58                N/A
WVE H/P(F/S)=  2/ 9 WND WVE H/P(F/S)=  2/ 9

WILM HARBR 41108 0200               59                N/A
WVE H/P(F/S)=  2/ 9 WND WVE H/P(F/S)=  2/ 9

27WRITEBCH 41037 0100            44 65  360/  8/ 10 1027.7R
FRYING PAN 41013 0200            47 67  330/  8/ 12 1027.7S
WVE H/P(F/S)=  3/ 6 WND WVE H/P(F/S)=  2/ 4 SWL H/P/D(F/S/D)=  3/ 60/ 6

SUNST NRSH 41024 0100            44      10/  4/  6 1023.4R
CAPRS NRSH 41029 0100            46     360/  8/  8   N/A
EDISTO     41004 0200            50 72  350/  8/ 14 1027.1S
WVE H/P(F/S)=  4/ 9 WND WVE H/P(F/S)=  2/ 4 SWL H/P/D(F/S/D)=  3/ 9



..........OFFSHORE BUOYS BEYOND 100 NM OFFSHORE...........
.....IN A TRIANGLE---HAT TO BERMUDA TO BAHAMAS TO HAT.....


STATION/POSITION TIME  SKY/WX   TEMP    WIND        PRES    VSBY
                                AIR SEA DIR/SP/G
                 (UTC)          (F)     (DEG/KT/KT) (MB)    (MI)
150E HAT   41001 NOT AVBL
W BERMUDA  41048 0146            63 74  340/ 21/ 27 1018.9R
WVE H/P(F/S)= 12/10 WND WVE H/P(F/S)= 10/ 7 SWL H/P/D(F/S/D)=  8/310/10

ATLANTIC S 41049 0139            77 78  350/ 14/ 16 1014.1R
WVE H/P(F/S)=  6/ 9 WND WVE H/P(F/S)=  2/ 5 SWL H/P/D(F/S/D)=  5/ 90/ 9

E BAHAMAS  41046 0144            76 80   20/ 19/ 23 1015.0R
WVE H/P(F/S)=  7/ 9 WND WVE H/P(F/S)=  5/ 8 SWL H/P/D(F/S/D)=  5/ 80/ 9

NE BAHAMAS 41047 0108            70 77  350/ 16/ 21 1019.1R
WVE H/P(F/S)=  9/10 WND WVE H/P(F/S)=  7/ 6 SWL H/P/D(F/S/D)=  7/360/10

120E CANVRL41010 0200            65 77   10/ 14/ 17 1023.7R
WVE H/P(F/S)=  6/ 7 WND WVE H/P(F/S)=  5/ 5 SWL H/P/D(F/S/D)=  5/360/ 7


END


USA.gov is the U.S. government's official web portal to all federal, state and local government web resources and services.